Fort Knox, KY

4:34 PM EST on December 08, 2019 (GMT -0500)
Godman Army Air Field

Weather History for KFTK - October, 2019

Change the Weather History Date:

Sunday, October 6, 2019

  Actual Average Record
Temperature  
Mean Temperature 68 °F -  
Max Temperature 75 °F 70 °F 88 °F (2007)
Min Temperature 59 °F 48 °F 37 °F (2001)
Cooling Degree Days 2    
Growing Degree Days 18 (Base 50)    
Moisture  
Dew Point 64 °F    
Average Humidity 88    
Maximum Humidity 100    
Minimum Humidity 60    
Precipitation  
Precipitation 1.60 in - - ()
Sea Level Pressure  
Sea Level Pressure 30.09 in    
Wind  
Wind Speed 6 mph (West)    
Max Wind Speed 15 mph    
Max Gust Speed 17 mph    
Visibility 8 miles    
Events Rain , Thunderstorm    
Averages and records for this station are not official NWS values.
T = Trace of Precipitation, MM = Missing Value Source: NWS Daily Summary

Daily Weather History Graph

Daily Weather History Graph

Search for Another Location

Airport or City:

Astronomy

Oct. 06, 2019 Rise Set
Actual Time 7:43 AM EDT 7:19 PM EDT
Civil Twilight 7:17 AM EDT 7:45 PM EDT
Nautical Twilight 6:47 AM EDT 8:16 PM EDT
Astronomical Twilight 6:16 AM EDT 8:46 PM EDT
Moon 3:50 PM EDT (10/6) 12:49 AM EDT (10/6)
Length of Visible Light 12h 28m
Length of Day
11h 35m
First Quarter, 59% of the Moon is Illuminated
Oct 6
First Quarter
Oct 13
Full
Oct 21
Last Quarter
Oct 27
New
Nov 4
First Quarter

Hourly Weather History & Observations

Time (EDT) Temp. Dew Point Humidity Pressure Visibility Wind Dir Wind Speed Gust Speed Precip Events Conditions
12:09 AM 62.6 °F 53.6 °F 72% 30.00 in 10.0 mi Calm Calm - N/A   Mostly Cloudy
12:37 AM 64.4 °F 55.4 °F 73% 30.02 in 10.0 mi Calm Calm - N/A   Overcast
12:56 AM 64.2 °F 55.0 °F 72% 30.02 in 9.0 mi West 4.6 mph - 0.00 in   Mostly Cloudy
1:48 AM 64.4 °F 53.6 °F 68% 29.98 in 10.0 mi East 8.1 mph - N/A   Overcast
1:56 AM 66.6 °F 52.2 °F 60% 29.99 in 10.0 mi SE 9.2 mph - N/A   Mostly Cloudy
2:56 AM 70.7 °F 58.3 °F 65% 29.98 in 10.0 mi SSE 8.1 mph - N/A   Mostly Cloudy
3:11 AM 71.6 °F 60.8 °F 69% 30.00 in 10.0 mi SSW 3.5 mph - N/A   Overcast
3:29 AM 69.8 °F 60.8 °F 73% 30.02 in 10.0 mi West 8.1 mph - N/A   Overcast
3:56 AM 69.8 °F 59.2 °F 69% 30.02 in 10.0 mi SW 5.8 mph - N/A   Mostly Cloudy
4:56 AM 68.4 °F 60.1 °F 75% 30.02 in 10.0 mi South 3.5 mph - N/A   Overcast
5:32 AM 68.0 °F 60.8 °F 78% 30.04 in 10.0 mi South 3.5 mph - N/A   Mostly Cloudy
5:56 AM 67.1 °F 61.3 °F 82% 30.05 in 10.0 mi SSW 3.5 mph - N/A   Mostly Cloudy
6:56 AM 66.7 °F 62.4 °F 86% 30.06 in 10.0 mi South 4.6 mph - N/A   Overcast
7:18 AM 66.2 °F 62.6 °F 88% 30.09 in 10.0 mi SSW 4.6 mph - N/A   Mostly Cloudy
7:56 AM 67.3 °F 63.9 °F 89% 30.10 in 10.0 mi SSW 5.8 mph - N/A   Mostly Cloudy
8:56 AM 69.8 °F 64.8 °F 84% 30.10 in 10.0 mi South 9.2 mph - N/A   Clear
9:11 AM 71.6 °F 64.4 °F 78% 30.11 in 10.0 mi South 11.5 mph - N/A   Mostly Cloudy
9:56 AM 72.1 °F 64.6 °F 77% 30.11 in 10.0 mi South 11.5 mph - N/A   Overcast
10:26 AM 73.4 °F 64.4 °F 73% 30.12 in 10.0 mi South 11.5 mph - N/A   Overcast
10:56 AM 73.9 °F 65.1 °F 74% 30.13 in 10.0 mi SSW 12.7 mph 17.3 mph N/A   Overcast
11:56 AM 73.0 °F 65.3 °F 77% 30.14 in 10.0 mi SSW 10.4 mph - N/A   Overcast
12:32 PM 71.6 °F 66.2 °F 83% 30.14 in 10.0 mi South 10.4 mph - N/A Rain Light Rain
12:41 PM 71.6 °F 66.2 °F 83% 30.15 in 10.0 mi SSW 8.1 mph - N/A   Overcast
12:56 PM 74.3 °F 66.2 °F 76% 30.14 in 10.0 mi SSW 10.4 mph - 0.00 in   Overcast
1:11 PM 75.2 °F 66.2 °F 73% 30.14 in 10.0 mi SSW 10.4 mph - N/A   Overcast
1:53 PM 75.2 °F 66.2 °F 73% 30.12 in 10.0 mi South 9.2 mph - N/A   Mostly Cloudy
1:56 PM 74.7 °F 66.6 °F 76% 30.12 in 10.0 mi South 13.8 mph - N/A   Overcast
2:34 PM 73.4 °F 66.2 °F 78% 30.09 in 10.0 mi South 9.2 mph - N/A   Mostly Cloudy
2:56 PM 74.3 °F 66.6 °F 77% 30.09 in 10.0 mi South 8.1 mph - N/A   Scattered Clouds
3:46 PM 75.2 °F 66.2 °F 73% 30.08 in 10.0 mi South 8.1 mph - N/A   Mostly Cloudy
3:56 PM 74.8 °F 67.1 °F 77% 30.07 in 10.0 mi SSE 9.2 mph - N/A   Mostly Cloudy
4:33 PM 73.4 °F 68.0 °F 83% 30.08 in 10.0 mi SSE 11.5 mph - N/A Rain Light Rain
4:48 PM 71.6 °F 69.8 °F 94% 30.08 in 1.9 mi SE 5.8 mph - N/A Rain Heavy Rain
4:56 PM 70.5 °F 70.5 °F 100% 30.08 in 4.0 mi SSE 5.8 mph - 0.17 in Rain Light Rain
5:11 PM 69.8 °F 69.8 °F 100% 30.08 in 0.8 mi North 6.9 mph - N/A Rain Heavy Rain
5:25 PM 68.0 °F 68.0 °F 100% 30.09 in 1.5 mi West 6.9 mph - N/A Rain , Thunderstorm Heavy Thunderstorms and Rain
5:40 PM 66.2 °F 66.2 °F 100% 30.09 in 3.0 mi NW 9.2 mph - N/A Rain , Thunderstorm Thunderstorms and Rain
5:41 PM 66.2 °F 66.2 °F 100% 30.09 in 3.0 mi NW 9.2 mph - N/A Rain Rain
5:52 PM 66.2 °F 66.2 °F 100% 30.10 in 8.0 mi NNW 8.1 mph - N/A Rain , Thunderstorm Light Thunderstorms and Rain
5:56 PM 66.6 °F 66.6 °F 100% 30.10 in 9.0 mi NNW 8.1 mph - 0.78 in Rain , Thunderstorm Light Thunderstorms and Rain
6:07 PM 66.2 °F 66.2 °F 100% 30.10 in 5.0 mi NW 9.2 mph - N/A Rain , Thunderstorm Heavy Rain
6:22 PM 66.2 °F 66.2 °F 100% 30.10 in 2.8 mi NW 8.1 mph - N/A Rain Heavy Rain
6:37 PM 66.2 °F 66.2 °F 100% 30.09 in 4.0 mi NNW 6.9 mph - N/A Rain Rain
6:43 PM 66.2 °F 66.2 °F 100% 30.11 in 5.0 mi NNW 5.8 mph - N/A Rain Rain
6:47 PM 66.2 °F 66.2 °F 100% 30.11 in 6.0 mi NW 3.5 mph - N/A Rain , Thunderstorm Light Thunderstorms and Rain
6:55 PM 66.2 °F 66.2 °F 100% 30.09 in 5.0 mi NNW 12.7 mph - N/A Rain , Thunderstorm Heavy Thunderstorms and Rain
6:56 PM 65.5 °F 65.5 °F 100% 30.09 in 5.0 mi NNW 12.7 mph - 0.18 in Rain , Thunderstorm Heavy Thunderstorms and Rain
7:02 PM 64.4 °F 64.4 °F 100% 30.08 in 4.0 mi NNW 15.0 mph - N/A Rain Heavy Rain
7:10 PM 64.4 °F 64.4 °F 100% 30.09 in 6.0 mi NW 10.4 mph - N/A Rain , Thunderstorm Thunderstorms and Rain
7:17 PM 64.4 °F 64.4 °F 100% 30.11 in 6.0 mi NW 6.9 mph - N/A Rain , Thunderstorm Thunderstorms and Rain
7:25 PM 64.4 °F 64.4 °F 100% 30.10 in 8.0 mi NNW 8.1 mph - N/A Rain Light Rain
7:36 PM 64.4 °F 64.4 °F 100% 30.12 in 7.0 mi North 4.6 mph - N/A Rain Rain
7:47 PM 64.4 °F 64.4 °F 100% 30.11 in 5.0 mi North 4.6 mph - N/A Rain , Thunderstorm Thunderstorms and Rain
7:55 PM 64.4 °F 64.4 °F 100% 30.09 in 5.0 mi NNE 8.1 mph - N/A Rain , Thunderstorm Thunderstorms and Rain
7:56 PM 64.2 °F 64.2 °F 100% 30.09 in 5.0 mi NNE 8.1 mph - 0.16 in Rain , Thunderstorm Thunderstorms and Rain
8:32 PM 64.4 °F 64.4 °F 100% 30.09 in 7.0 mi NNE 11.5 mph - N/A Rain Rain
8:55 PM 62.6 °F 62.6 °F 100% 30.12 in 10.0 mi NNE 5.8 mph - N/A Rain Light Rain
8:56 PM 63.1 °F 63.1 °F 100% 30.12 in 10.0 mi NNE 5.8 mph - 0.14 in Rain Light Rain
9:27 PM 62.6 °F 62.6 °F 100% 30.14 in 10.0 mi North 5.8 mph - N/A Rain Light Rain
9:56 PM 62.1 °F 62.1 °F 100% 30.14 in 7.0 mi North 6.9 mph - 0.02 in Rain Light Rain
10:11 PM 60.8 °F 60.8 °F 100% 30.14 in 9.0 mi North 5.8 mph - N/A Rain Light Rain
10:22 PM 60.8 °F 60.8 °F 100% 30.14 in 10.0 mi North 6.9 mph - N/A   Overcast
10:52 PM 60.8 °F 60.8 °F 100% 30.16 in 10.0 mi NNW 8.1 mph - N/A   Overcast
10:56 PM 60.6 °F 60.6 °F 100% 30.16 in 10.0 mi NW 6.9 mph - 0.02 in   Overcast
11:24 PM 60.8 °F 60.8 °F 100% 30.15 in 10.0 mi NNE 6.9 mph - N/A Rain Light Rain
11:56 PM 59.7 °F 59.7 °F 100% 30.16 in 8.0 mi NNW 5.8 mph - 0.13 in Rain Light Rain